contact:dominique.lefevre@mio.osupytheas.fr, maurice.libes@osupytheas.fr, didier.mallarino@osupytheas.fr
Project:EMSO http://www.emso-fr.org/EMSO-France
Depth: 2436.0 m
Title:EMSO Ligure Ouest : Data MII capteur AQUADOPP
Date,Latitude,Longitude,X_East,Y_North,Z_Up,Amplitude_X,Amplitude_Y,Amplitude_Z,Batterie,SoundSpeed,Heading,Pitch,Roll,Pressure,TIS,Speed,Direction
, degrees North, degrees East, m.s-1, m.s-1,m.s-1, 1, 1, 1, Volt, m.s-1, degree, degree, degree, dbar, degree_C, m.s-1, degree
2022-06-08T00:04:03,42.805,6.029,-0.005,0.014,-0.014,102.0,102.0,100.0,13.4,1505.2,331.6,-0.8,1.8,2470.95,13.28,0.014,340.4
2022-06-08T00:07:03,42.805,6.029,0.014,-0.009,0.002,102.0,103.0,100.0,13.4,1505.2,329.0,-0.7,1.8,2470.958,13.28,0.016,122.7
2022-06-08T00:10:03,42.805,6.029,0.014,0.007,-0.033,101.0,102.0,100.0,13.3,1505.2,321.7,-0.7,1.9,2470.942,13.28,0.015,63.4
2022-06-08T00:13:03,42.805,6.029,0.027,0.009,0.015,102.0,102.0,100.0,13.3,1505.2,323.7,-0.8,1.8,2470.955,13.28,0.028,71.6
2022-06-08T00:16:03,42.805,6.029,0.003,0.017,-0.004,101.0,102.0,100.0,13.4,1505.2,327.0,-0.8,1.8,2470.947,13.28,0.017,10.0
2022-06-08T00:19:03,42.805,6.029,0.012,0.007,0.011,101.0,102.0,100.0,13.4,1505.2,326.4,-0.8,1.8,2470.93,13.28,0.013,59.7
2022-06-08T00:22:03,42.805,6.029,0.04,0.004,-0.008,103.0,103.0,99.0,13.4,1505.2,324.0,-0.8,1.9,2470.939,13.28,0.04,84.3
2022-06-08T00:25:03,42.805,6.029,0.036,0.004,0.023,102.0,102.0,101.0,13.3,1505.2,322.6,-0.7,1.8,2470.905,13.28,0.036,83.7
2022-06-08T00:28:03,42.805,6.029,0.05,0.021,0.054,102.0,103.0,99.0,13.3,1505.2,333.2,-0.7,1.8,2470.906,13.28,0.054,67.2
2022-06-08T00:31:03,42.805,6.029,0.014,0.008,-0.001,102.0,103.0,100.0,13.4,1505.2,328.2,-0.8,1.8,2470.921,13.28,0.016,60.3
2022-06-08T00:34:03,42.805,6.029,0.004,0.011,0.042,102.0,104.0,100.0,13.4,1505.2,331.7,-0.8,1.8,2470.917,13.28,0.011,20.0
2022-06-08T00:37:03,42.805,6.029,0.011,0.0,-0.004,101.0,104.0,100.0,13.4,1505.2,332.7,-0.8,1.8,2470.922,13.28,0.011,90.0
2022-06-08T00:40:03,42.805,6.029,0.049,0.002,-0.019,101.0,104.0,100.0,13.3,1505.2,332.5,-0.8,1.8,2470.9,13.28,0.049,87.7
2022-06-08T00:43:03,42.805,6.029,0.03,0.017,0.014,102.0,102.0,100.0,13.3,1505.2,328.7,-0.8,1.8,2470.915,13.28,0.034,60.5
2022-06-08T00:46:03,42.805,6.029,0.029,0.008,0.002,102.0,103.0,101.0,13.3,1505.2,330.2,-0.8,1.8,2470.889,13.28,0.03,74.6
2022-06-08T00:49:03,42.805,6.029,0.01,0.009,-0.007,102.0,102.0,101.0,13.4,1505.2,323.4,-0.7,1.8,2470.926,13.28,0.013,48.0
2022-06-08T00:52:03,42.805,6.029,0.001,0.018,0.025,103.0,103.0,102.0,13.3,1505.2,322.4,-0.8,1.8,2470.905,13.28,0.018,3.2
2022-06-08T00:55:03,42.805,6.029,0.015,0.023,0.019,102.0,105.0,101.0,13.4,1505.2,324.5,-0.7,1.8,2470.918,13.28,0.027,33.1
2022-06-08T00:58:03,42.805,6.029,0.033,0.019,0.021,101.0,104.0,100.0,13.4,1505.2,322.2,-0.8,1.8,2470.917,13.28,0.038,60.1
2022-06-08T01:04:03,42.805,6.029,0.033,-0.003,-0.004,102.0,105.0,100.0,13.4,1505.2,323.2,-0.8,1.8,2470.958,13.28,0.033,95.2
2022-06-08T01:07:02,42.805,6.029,0.018,-0.005,-0.006,101.0,104.0,101.0,13.4,1505.2,328.1,-0.7,1.8,2470.917,13.28,0.018,105.5
2022-06-08T01:10:03,42.805,6.029,0.024,0.011,0.008,102.0,103.0,99.0,13.4,1505.2,329.5,-0.8,1.8,2470.952,13.28,0.026,65.4
2022-06-08T01:13:03,42.805,6.029,0.042,0.009,0.007,102.0,103.0,100.0,13.4,1505.2,321.7,-0.8,1.8,2470.922,13.28,0.042,77.9
2022-06-08T01:16:03,42.805,6.029,0.027,0.02,0.033,103.0,104.0,100.0,13.4,1505.2,330.3,-0.8,1.8,2470.9,13.28,0.033,53.5
2022-06-08T01:19:03,42.805,6.029,0.045,0.012,0.024,102.0,103.0,100.0,13.4,1505.2,323.5,-0.7,1.8,2470.932,13.28,0.046,75.1
2022-06-08T01:22:03,42.805,6.029,0.033,0.004,0.003,102.0,104.0,100.0,13.4,1505.2,328.9,-0.8,1.8,2470.887,13.28,0.033,83.1
2022-06-08T01:25:03,42.805,6.029,0.027,0.0,0.022,102.0,104.0,101.0,13.4,1505.2,331.6,-0.8,1.8,2470.902,13.28,0.026,90.0
2022-06-08T01:28:03,42.805,6.029,0.008,0.019,0.022,102.0,104.0,100.0,13.4,1505.2,332.5,-0.8,1.8,2470.936,13.28,0.02,22.8
2022-06-08T01:31:03,42.805,6.029,0.042,0.026,0.026,102.0,104.0,100.0,13.3,1505.2,326.8,-0.8,1.8,2470.911,13.28,0.049,58.2
2022-06-08T01:34:03,42.805,6.029,-0.003,0.027,0.015,104.0,103.0,102.0,13.4,1505.2,329.4,-0.8,1.8,2470.915,13.28,0.027,353.7
2022-06-08T01:37:03,42.805,6.029,0.012,0.034,0.004,102.0,104.0,100.0,13.3,1505.2,321.8,-0.8,1.8,2470.918,13.28,0.036,19.4
2022-06-08T01:40:03,42.805,6.029,0.028,0.028,0.035,103.0,104.0,100.0,13.4,1505.2,324.9,-0.8,1.8,2470.929,13.28,0.039,45.0
2022-06-08T01:43:03,42.805,6.029,0.02,0.002,0.007,100.0,105.0,100.0,13.4,1505.2,325.3,-0.8,1.8,2470.966,13.28,0.02,84.3
2022-06-08T01:46:03,42.805,6.029,0.029,0.012,-0.01,102.0,104.0,99.0,13.4,1505.2,326.7,-0.8,1.8,2470.939,13.28,0.031,67.5
2022-06-08T01:49:03,42.805,6.029,0.015,0.026,0.005,100.0,104.0,102.0,13.3,1505.2,321.8,-0.7,1.8,2470.901,13.28,0.03,30.0
2022-06-08T01:52:03,42.805,6.029,0.045,0.006,0.016,101.0,105.0,101.0,13.4,1505.2,331.9,-0.7,1.8,2470.893,13.28,0.045,82.4
2022-06-08T01:55:03,42.805,6.029,0.024,0.014,0.009,101.0,104.0,101.0,13.4,1505.2,325.0,-0.8,1.8,2470.931,13.28,0.027,59.7
2022-06-08T01:58:03,42.805,6.029,0.034,-0.001,0.014,102.0,105.0,99.0,13.4,1505.2,324.9,-0.7,1.8,2470.906,13.28,0.034,91.7
2022-06-08T02:04:03,42.805,6.029,0.033,0.01,-0.012,102.0,104.0,100.0,13.4,1505.2,324.0,-0.8,1.8,2470.935,13.28,0.034,73.1
2022-06-08T02:07:03,42.805,6.029,0.019,0.008,0.003,102.0,105.0,100.0,13.4,1505.2,324.5,-0.7,1.8,2470.937,13.28,0.02,67.2
2022-06-08T02:10:03,42.805,6.029,0.011,0.012,-0.025,102.0,105.0,100.0,13.4,1505.2,324.1,-0.8,1.8,2470.934,13.28,0.016,42.5
2022-06-08T02:13:03,42.805,6.029,0.023,0.005,-0.001,101.0,105.0,100.0,13.4,1505.2,326.4,-0.7,1.8,2470.912,13.28,0.023,77.7
2022-06-08T02:16:03,42.805,6.029,0.024,0.026,0.021,103.0,104.0,100.0,13.4,1505.2,320.4,-0.8,1.8,2470.936,13.28,0.035,42.7
2022-06-08T02:19:03,42.805,6.029,0.032,0.03,0.02,102.0,105.0,101.0,13.4,1505.2,330.6,-0.7,1.8,2470.952,13.28,0.043,46.9
2022-06-08T02:22:03,42.805,6.029,0.027,0.0,0.017,103.0,104.0,100.0,13.3,1505.2,326.6,-0.7,1.8,2470.939,13.28,0.026,90.0
2022-06-08T02:25:03,42.805,6.029,0.027,0.022,-0.003,103.0,105.0,100.0,13.4,1505.2,328.9,-0.8,1.9,2470.935,13.28,0.034,50.8
2022-06-08T02:28:03,42.805,6.029,0.035,0.019,0.034,101.0,104.0,101.0,13.4,1505.2,329.5,-0.7,1.8,2470.876,13.28,0.039,61.5
2022-06-08T02:31:03,42.805,6.029,0.004,0.004,0.003,103.0,104.0,100.0,13.3,1505.2,328.0,-0.8,1.8,2470.942,13.28,0.005,45.0
2022-06-08T02:34:03,42.805,6.029,0.027,0.025,0.022,102.0,104.0,100.0,13.4,1505.2,329.5,-0.8,1.8,2470.903,13.28,0.036,47.2
2022-06-08T02:37:03,42.805,6.029,0.033,0.03,0.03,102.0,104.0,100.0,13.4,1505.2,328.5,-0.7,1.9,2470.88,13.28,0.044,47.7
2022-06-08T02:40:03,42.805,6.029,0.035,0.022,0.018,101.0,104.0,100.0,13.4,1505.2,324.6,-0.8,1.8,2470.912,13.28,0.041,57.8
2022-06-08T02:43:03,42.805,6.029,0.053,0.001,0.023,101.0,104.0,101.0,13.4,1505.2,327.2,-0.8,1.8,2470.932,13.28,0.053,88.9
2022-06-08T02:46:03,42.805,6.029,0.039,0.012,0.019,101.0,105.0,100.0,13.4,1505.2,320.7,-0.7,1.8,2470.877,13.28,0.04,72.9
2022-06-08T02:49:03,42.805,6.029,0.028,0.018,-0.012,103.0,104.0,100.0,13.3,1505.2,329.6,-0.8,1.8,2470.934,13.28,0.033,57.3
2022-06-08T02:52:03,42.805,6.029,0.016,0.015,0.013,101.0,105.0,100.0,13.4,1505.2,326.8,-0.8,1.8,2470.904,13.28,0.021,46.9
2022-06-08T02:55:03,42.805,6.029,0.019,0.003,-0.013,101.0,104.0,100.0,13.4,1505.2,325.8,-0.7,1.8,2470.894,13.28,0.019,81.0
2022-06-08T02:58:03,42.805,6.029,0.039,0.006,0.029,101.0,105.0,101.0,13.4,1505.2,325.0,-0.8,1.8,2470.916,13.28,0.039,81.3
2022-06-08T03:04:03,42.805,6.029,0.036,0.003,-0.002,101.0,104.0,100.0,13.3,1505.2,327.2,-0.7,1.8,2470.91,13.28,0.036,85.2
2022-06-08T03:07:03,42.805,6.029,0.018,0.015,0.016,101.0,104.0,100.0,13.4,1505.2,327.9,-0.7,1.9,2470.96,13.28,0.023,50.2
2022-06-08T03:10:03,42.805,6.029,0.012,-0.001,-0.006,103.0,104.0,100.0,13.4,1505.2,321.6,-0.8,1.8,2470.908,13.28,0.012,94.8
2022-06-08T03:13:03,42.805,6.029,0.043,0.024,0.008,101.0,106.0,101.0,13.4,1505.2,327.8,-0.8,1.8,2470.959,13.28,0.049,60.8
2022-06-08T03:16:03,42.805,6.029,0.023,0.004,-0.022,103.0,103.0,100.0,13.4,1505.2,331.3,-0.7,1.8,2470.894,13.28,0.023,80.1
2022-06-08T03:19:03,42.805,6.029,0.012,0.005,0.013,101.0,105.0,100.0,13.4,1505.2,322.2,-0.8,1.8,2470.912,13.28,0.013,67.4
2022-06-08T03:22:03,42.805,6.029,0.042,-0.001,-0.029,101.0,104.0,102.0,13.3,1505.2,329.9,-0.7,1.8,2470.907,13.28,0.042,91.4
2022-06-08T03:25:03,42.805,6.029,0.0,0.038,0.0,102.0,105.0,100.0,13.3,1505.2,332.1,-0.8,1.8,2470.878,13.28,0.038,0.0
2022-06-08T03:28:03,42.805,6.029,0.019,0.021,0.029,103.0,104.0,100.0,13.4,1505.2,324.9,-0.7,1.8,2470.91,13.28,0.028,42.1
2022-06-08T03:31:03,42.805,6.029,0.008,0.016,-0.001,103.0,104.0,100.0,13.4,1505.2,325.2,-0.7,1.8,2470.862,13.29,0.017,26.6
2022-06-08T03:34:03,42.805,6.029,-0.002,0.021,0.01,103.0,104.0,101.0,13.4,1505.2,324.3,-0.7,1.8,2470.889,13.28,0.021,354.6
2022-06-08T03:37:03,42.805,6.029,0.024,0.016,0.007,102.0,106.0,100.0,13.4,1505.2,324.5,-0.8,1.8,2470.87,13.28,0.028,56.3
2022-06-08T03:40:03,42.805,6.029,0.026,0.018,0.012,103.0,105.0,100.0,13.4,1505.2,324.9,-0.7,1.8,2470.923,13.28,0.031,55.3
2022-06-08T03:43:03,42.805,6.029,0.043,0.027,0.03,103.0,106.0,100.0,13.3,1505.2,327.1,-0.8,1.8,2470.898,13.28,0.05,57.9
2022-06-08T03:46:03,42.805,6.029,0.04,0.012,0.041,102.0,105.0,100.0,13.4,1505.2,329.6,-0.7,1.8,2470.89,13.28,0.041,73.3
2022-06-08T03:49:03,42.805,6.029,0.016,0.036,0.021,104.0,104.0,100.0,13.4,1505.2,322.8,-0.7,1.8,2470.887,13.28,0.039,24.0
2022-06-08T03:52:03,42.805,6.029,0.028,0.019,0.02,102.0,106.0,101.0,13.4,1505.2,322.0,-0.7,1.8,2470.938,13.28,0.033,55.8
2022-06-08T03:55:03,42.805,6.029,0.02,0.043,0.032,103.0,105.0,100.0,13.4,1505.2,320.7,-0.8,1.8,2470.88,13.28,0.047,24.9
2022-06-08T03:58:03,42.805,6.029,0.01,0.022,0.033,101.0,105.0,101.0,13.4,1505.2,326.9,-0.8,1.8,2470.882,13.28,0.024,24.4
2022-06-08T04:04:03,42.805,6.029,0.054,0.0,0.018,102.0,104.0,101.0,13.4,1505.2,329.9,-0.8,1.8,2470.953,13.28,0.053,90.0
2022-06-08T04:07:03,42.805,6.029,0.01,0.016,0.001,101.0,105.0,101.0,13.4,1505.2,328.3,-0.8,1.8,2470.948,13.28,0.018,32.0
2022-06-08T04:10:03,42.805,6.029,0.024,0.043,0.037,101.0,105.0,102.0,13.4,1505.2,323.7,-0.8,1.8,2470.941,13.28,0.049,29.2
2022-06-08T04:13:03,42.805,6.029,0.017,0.026,0.047,100.0,105.0,100.0,13.4,1505.2,323.1,-0.8,1.8,2470.913,13.28,0.031,33.2
2022-06-08T04:16:03,42.805,6.029,0.027,0.021,0.003,101.0,105.0,100.0,13.4,1505.2,324.3,-0.7,1.8,2470.899,13.28,0.034,52.1
2022-06-08T04:19:03,42.805,6.029,0.031,0.008,-0.03,102.0,105.0,102.0,13.4,1505.2,329.4,-0.7,1.8,2470.902,13.28,0.032,75.5
2022-06-08T04:22:03,42.805,6.029,0.049,0.024,0.029,101.0,106.0,101.0,13.3,1505.2,326.6,-0.8,1.8,2470.945,13.28,0.054,63.9
2022-06-08T04:25:03,42.805,6.029,0.035,0.004,-0.011,101.0,105.0,101.0,13.4,1505.2,330.0,-0.7,1.8,2470.871,13.28,0.035,83.5
2022-06-08T04:28:03,42.805,6.029,0.022,0.026,0.013,102.0,105.0,100.0,13.4,1505.2,327.0,-0.8,1.8,2470.888,13.28,0.034,40.2
2022-06-08T04:31:03,42.805,6.029,0.025,0.01,-0.011,102.0,107.0,99.0,13.4,1505.2,332.7,-0.8,1.8,2470.904,13.28,0.026,68.2
2022-06-08T04:34:03,42.805,6.029,0.008,0.021,0.0,104.0,105.0,100.0,13.4,1505.2,319.6,-0.8,1.8,2470.877,13.28,0.022,20.9
2022-06-08T04:37:03,42.805,6.029,-0.012,0.036,0.027,101.0,108.0,100.0,13.4,1505.2,326.9,-0.8,1.8,2470.908,13.28,0.037,341.6
2022-06-08T04:40:03,42.805,6.029,0.03,0.023,0.011,101.0,104.0,100.0,13.3,1505.2,320.6,-0.8,1.8,2470.9,13.28,0.037,52.5
2022-06-08T04:43:03,42.805,6.029,0.033,0.03,0.013,101.0,105.0,101.0,13.4,1505.2,325.7,-0.8,1.8,2470.906,13.28,0.044,47.7
2022-06-08T04:46:03,42.805,6.029,0.036,0.0,-0.017,102.0,104.0,101.0,13.4,1505.2,323.7,-0.8,1.8,2470.896,13.28,0.036,90.0
2022-06-08T04:49:03,42.805,6.029,0.054,0.017,0.059,104.0,104.0,100.0,13.4,1505.2,324.4,-0.8,1.8,2470.88,13.28,0.056,72.5
2022-06-08T04:52:03,42.805,6.029,0.035,0.027,0.012,102.0,105.0,101.0,13.4,1505.2,325.1,-0.8,1.8,2470.897,13.28,0.044,52.3
2022-06-08T04:55:03,42.805,6.029,0.012,0.024,0.021,103.0,106.0,99.0,13.4,1505.2,325.6,-0.8,1.8,2470.887,13.28,0.026,26.6
2022-06-08T04:58:03,42.805,6.029,0.025,-0.008,0.004,101.0,106.0,100.0,13.4,1505.2,324.8,-0.8,1.8,2470.874,13.28,0.026,107.7
2022-06-08T05:04:03,42.805,6.029,0.03,-0.021,-0.012,100.0,107.0,101.0,13.4,1505.2,329.9,-0.8,1.8,2470.914,13.28,0.036,125.0
2022-06-08T05:07:03,42.805,6.029,0.024,0.016,0.008,101.0,105.0,101.0,13.4,1505.2,322.6,-0.7,1.8,2470.896,13.28,0.028,56.3
2022-06-08T05:10:03,42.805,6.029,0.056,0.005,0.012,103.0,105.0,100.0,13.4,1505.2,327.8,-0.8,1.8,2470.926,13.28,0.056,84.9
2022-06-08T05:13:03,42.805,6.029,0.04,0.013,0.03,101.0,106.0,100.0,13.4,1505.2,330.2,-0.8,1.8,2470.883,13.28,0.042,72.0
2022-06-08T05:16:03,42.805,6.029,0.052,0.004,0.022,101.0,105.0,101.0,13.4,1505.2,323.5,-0.7,1.8,2470.868,13.28,0.052,85.6
2022-06-08T05:19:03,42.805,6.029,0.044,0.021,0.029,102.0,104.0,102.0,13.4,1505.2,326.5,-0.7,1.8,2470.856,13.28,0.048,64.5
2022-06-08T05:22:03,42.805,6.029,0.047,0.012,0.029,101.0,105.0,101.0,13.4,1505.2,328.3,-0.7,1.8,2470.868,13.28,0.048,75.7
2022-06-08T05:25:03,42.805,6.029,0.01,0.015,0.007,102.0,107.0,100.0,13.4,1505.2,321.1,-0.8,1.8,2470.855,13.28,0.018,33.7
2022-06-08T05:28:03,42.805,6.029,0.016,0.012,0.0,103.0,106.0,100.0,13.4,1505.2,321.1,-0.8,1.8,2470.86,13.28,0.02,53.1
2022-06-08T05:31:03,42.805,6.029,0.01,0.01,0.002,103.0,104.0,100.0,13.4,1505.2,328.3,-0.8,1.8,2470.871,13.28,0.014,45.0
2022-06-08T05:34:03,42.805,6.029,-0.001,0.003,0.006,103.0,104.0,100.0,13.4,1505.2,327.8,-0.7,1.8,2470.87,13.28,0.003,341.6
2022-06-08T05:37:03,42.805,6.029,0.01,0.042,0.017,102.0,105.0,99.0,13.3,1505.2,320.2,-0.7,1.8,2470.833,13.28,0.043,13.4
2022-06-08T05:40:03,42.805,6.029,-0.001,0.008,0.021,101.0,104.0,101.0,13.4,1505.2,328.6,-0.7,1.8,2470.865,13.28,0.008,352.9
2022-06-08T05:43:03,42.805,6.029,0.035,0.017,0.011,103.0,106.0,100.0,13.4,1505.2,324.4,-0.8,1.8,2470.872,13.28,0.038,64.1
2022-06-08T05:46:03,42.805,6.029,0.0,0.025,0.003,103.0,105.0,101.0,13.4,1505.2,325.4,-0.8,1.8,2470.851,13.28,0.025,0.0
2022-06-08T05:49:03,42.805,6.029,0.025,0.019,0.016,102.0,106.0,100.0,13.3,1505.2,327.8,-0.7,1.9,2470.841,13.28,0.031,52.8
2022-06-08T05:52:03,42.805,6.029,0.043,0.0,0.0,102.0,105.0,100.0,13.4,1505.2,330.2,-0.7,1.8,2470.847,13.28,0.043,90.0
2022-06-08T05:55:03,42.805,6.029,0.023,0.018,0.004,102.0,106.0,100.0,13.3,1505.2,322.1,-0.8,1.9,2470.838,13.28,0.029,52.0
2022-06-08T05:58:03,42.805,6.029,0.028,0.02,0.052,102.0,105.0,100.0,13.3,1505.2,320.2,-0.8,1.8,2470.777,13.28,0.034,54.5
2022-06-08T06:04:03,42.805,6.029,0.033,0.007,0.001,102.0,105.0,101.0,13.4,1505.2,332.5,-0.8,1.8,2470.866,13.28,0.033,78.0
2022-06-08T06:07:03,42.805,6.029,0.005,0.034,0.01,103.0,105.0,100.0,13.4,1505.2,325.3,-0.8,1.8,2470.859,13.28,0.034,8.4
2022-06-08T06:10:03,42.805,6.029,0.024,0.021,0.006,102.0,103.0,102.0,13.4,1505.2,327.3,-0.7,1.8,2470.854,13.28,0.031,48.8
2022-06-08T06:13:03,42.805,6.029,0.006,0.004,-0.03,102.0,104.0,100.0,13.3,1505.2,326.7,-0.8,1.8,2470.861,13.28,0.007,56.3
2022-06-08T06:16:03,42.805,6.029,0.024,-0.007,-0.014,102.0,104.0,101.0,13.4,1505.2,322.1,-0.7,1.9,2470.848,13.28,0.025,106.3
2022-06-08T06:19:03,42.805,6.029,0.061,0.043,0.024,103.0,106.0,100.0,13.3,1505.2,328.6,-0.7,1.8,2470.853,13.28,0.074,54.8
2022-06-08T06:22:03,42.805,6.029,0.003,0.014,-0.011,104.0,104.0,101.0,13.4,1505.2,325.5,-0.7,1.8,2470.851,13.28,0.014,12.1
2022-06-08T06:25:03,42.805,6.029,0.014,0.004,0.007,102.0,105.0,101.0,13.4,1505.2,331.3,-0.8,1.8,2470.831,13.28,0.014,74.1
2022-06-08T06:28:03,42.805,6.029,-0.024,0.025,-0.012,102.0,104.0,102.0,13.4,1505.2,325.5,-0.8,1.8,2470.81,13.28,0.034,316.2
2022-06-08T06:31:03,42.805,6.029,-0.001,0.02,-0.026,102.0,105.0,101.0,13.4,1505.2,321.2,-0.7,1.8,2470.824,13.28,0.02,357.1
2022-06-08T06:34:03,42.805,6.029,0.02,0.011,-0.003,101.0,105.0,100.0,13.4,1505.2,324.8,-0.7,1.8,2470.821,13.28,0.022,61.2
2022-06-08T06:37:03,42.805,6.029,0.023,0.019,0.028,102.0,105.0,100.0,13.3,1505.2,323.9,-0.8,1.9,2470.822,13.28,0.029,50.4
2022-06-08T06:40:03,42.805,6.029,0.049,0.013,0.014,103.0,105.0,100.0,13.4,1505.2,323.8,-0.7,1.8,2470.86,13.28,0.05,75.1
2022-06-08T06:43:03,42.805,6.029,0.024,0.01,0.01,102.0,106.0,100.0,13.3,1505.2,328.1,-0.8,1.8,2470.814,13.28,0.026,67.4
2022-06-08T06:46:03,42.805,6.029,0.043,0.002,0.01,102.0,106.0,100.0,13.4,1505.2,330.5,-0.7,1.8,2470.804,13.28,0.043,87.3
2022-06-08T06:49:03,42.805,6.029,0.014,0.007,0.009,102.0,104.0,101.0,13.4,1505.2,327.3,-0.8,1.8,2470.825,13.28,0.015,63.4
2022-06-08T06:52:03,42.805,6.029,0.009,0.017,-0.005,101.0,105.0,100.0,13.4,1505.2,320.5,-0.8,1.8,2470.76,13.28,0.019,27.9
2022-06-08T06:55:03,42.805,6.029,0.062,0.018,-0.007,103.0,105.0,100.0,13.4,1505.2,321.2,-0.8,1.8,2470.803,13.28,0.064,73.8
2022-06-08T06:58:03,42.805,6.029,0.029,0.021,0.016,101.0,104.0,100.0,13.4,1505.2,330.9,-0.7,1.8,2470.796,13.28,0.035,54.1
2022-06-08T07:04:03,42.805,6.029,0.009,0.005,-0.025,102.0,104.0,101.0,13.3,1505.2,325.5,-0.8,1.9,2470.858,13.28,0.01,60.9
2022-06-08T07:07:03,42.805,6.029,0.057,0.015,0.024,101.0,105.0,100.0,13.4,1505.2,328.7,-0.8,1.8,2470.889,13.28,0.058,75.3
2022-06-08T07:10:03,42.805,6.029,0.045,0.02,0.007,102.0,106.0,100.0,13.4,1505.2,323.0,-0.8,1.8,2470.825,13.28,0.049,66.0
2022-06-08T07:13:03,42.805,6.029,0.026,0.01,0.013,101.0,105.0,100.0,13.4,1505.2,328.7,-0.7,1.8,2470.869,13.28,0.027,69.0
2022-06-08T07:16:03,42.805,6.029,0.037,0.017,0.005,102.0,105.0,100.0,13.3,1505.2,326.1,-0.7,1.8,2470.826,13.28,0.04,65.3
2022-06-08T07:19:03,42.805,6.029,0.048,0.037,0.081,102.0,106.0,100.0,13.3,1505.2,322.0,-0.8,1.8,2470.818,13.28,0.06,52.4
2022-06-08T07:22:03,42.805,6.029,0.016,0.015,0.028,102.0,106.0,100.0,13.4,1505.2,320.5,-0.8,1.8,2470.819,13.28,0.021,46.9
2022-06-08T07:25:03,42.805,6.029,0.033,0.005,0.034,101.0,105.0,101.0,13.4,1505.2,329.6,-0.7,1.8,2470.786,13.28,0.033,81.4
2022-06-08T07:28:03,42.805,6.029,0.015,0.01,0.021,102.0,106.0,99.0,13.3,1505.2,320.7,-0.8,1.8,2470.809,13.28,0.018,56.3
2022-06-08T07:31:03,42.805,6.029,0.043,0.01,0.028,103.0,105.0,100.0,13.3,1505.2,323.7,-0.8,1.8,2470.79,13.28,0.044,76.9
2022-06-08T07:34:03,42.805,6.029,0.036,0.019,0.025,102.0,106.0,101.0,13.4,1505.2,327.1,-0.8,1.8,2470.818,13.28,0.04,62.2
2022-06-08T07:37:03,42.805,6.029,0.04,0.003,0.014,103.0,106.0,100.0,13.3,1505.2,332.1,-0.7,1.8,2470.828,13.28,0.04,85.7
2022-06-08T07:40:03,42.805,6.029,0.03,0.027,0.019,103.0,106.0,101.0,13.4,1505.2,331.6,-0.7,1.8,2470.799,13.28,0.04,48.0
2022-06-08T07:43:03,42.805,6.029,0.058,0.007,0.026,102.0,106.0,100.0,13.4,1505.2,327.1,-0.8,1.8,2470.798,13.28,0.058,83.1
2022-06-08T07:46:03,42.805,6.029,0.023,0.019,0.01,103.0,105.0,100.0,13.4,1505.2,329.2,-0.8,1.8,2470.809,13.28,0.029,50.4
2022-06-08T07:49:03,42.805,6.029,0.014,0.019,0.013,103.0,106.0,101.0,13.4,1505.2,325.8,-0.8,1.8,2470.818,13.28,0.023,36.4
2022-06-08T07:52:03,42.805,6.029,0.011,0.049,0.059,102.0,105.0,100.0,13.4,1505.2,323.6,-0.8,1.8,2470.8,13.28,0.05,12.7
2022-06-08T07:55:03,42.805,6.029,0.024,0.011,0.017,103.0,104.0,101.0,13.4,1505.2,329.3,-0.8,1.8,2470.792,13.28,0.026,65.4
2022-06-08T07:58:03,42.805,6.029,0.035,0.04,0.059,102.0,104.0,101.0,13.4,1505.2,323.6,-0.8,1.8,2470.801,13.28,0.053,41.2
2022-06-08T08:04:03,42.805,6.029,0.035,0.005,0.02,103.0,104.0,100.0,13.4,1505.2,329.5,-0.8,1.8,2470.819,13.28,0.035,81.9
2022-06-08T08:07:03,42.805,6.029,0.039,0.018,0.041,102.0,105.0,100.0,13.4,1505.2,328.2,-0.8,1.8,2470.785,13.28,0.042,65.2
2022-06-08T08:10:03,42.805,6.029,0.046,0.016,0.014,103.0,104.0,101.0,13.4,1505.2,323.6,-0.7,1.8,2470.799,13.28,0.048,70.8
2022-06-08T08:13:03,42.805,6.029,0.019,0.013,0.028,102.0,105.0,101.0,13.4,1505.2,328.0,-0.8,1.8,2470.813,13.28,0.023,55.6
2022-06-08T08:16:03,42.805,6.029,0.03,0.011,0.009,104.0,105.0,101.0,13.4,1505.2,328.3,-0.8,1.8,2470.805,13.28,0.031,69.9
2022-06-08T08:19:03,42.805,6.029,0.02,0.009,0.0,101.0,106.0,101.0,13.3,1505.2,325.6,-0.8,1.8,2470.842,13.28,0.021,65.8
2022-06-08T08:22:03,42.805,6.029,0.039,0.037,0.022,102.0,105.0,100.0,13.3,1505.2,329.0,-0.7,1.8,2470.805,13.28,0.053,46.5
2022-06-08T08:25:03,42.805,6.029,0.03,0.008,0.027,102.0,105.0,100.0,13.4,1505.2,322.3,-0.8,1.8,2470.765,13.28,0.031,75.1
2022-06-08T08:28:03,42.805,6.029,0.064,0.024,0.049,102.0,106.0,100.0,13.4,1505.2,321.3,-0.8,1.8,2470.783,13.28,0.068,69.4
2022-06-08T08:31:03,42.805,6.029,0.021,0.001,-0.005,102.0,105.0,100.0,13.4,1505.2,324.9,-0.7,1.8,2470.829,13.28,0.021,87.3
2022-06-08T08:34:03,42.805,6.029,0.014,0.001,0.002,101.0,106.0,101.0,13.3,1505.2,324.6,-0.7,1.8,2470.797,13.28,0.014,85.9
2022-06-08T08:37:03,42.805,6.029,0.029,0.019,0.024,102.0,106.0,100.0,13.4,1505.2,328.4,-0.8,1.8,2470.795,13.28,0.034,56.8
2022-06-08T08:40:03,42.805,6.029,0.043,-0.012,0.034,102.0,106.0,100.0,13.4,1505.2,329.2,-0.8,1.8,2470.782,13.28,0.044,105.6
2022-06-08T08:43:03,42.805,6.029,0.045,0.025,0.042,103.0,105.0,102.0,13.4,1505.2,327.0,-0.8,1.8,2470.749,13.28,0.051,60.9
2022-06-08T08:46:03,42.805,6.029,0.029,0.012,0.017,102.0,106.0,100.0,13.4,1505.2,328.4,-0.7,1.8,2470.782,13.28,0.031,67.5
2022-06-08T08:49:03,42.805,6.029,0.064,0.0,0.031,103.0,106.0,100.0,13.3,1505.2,329.0,-0.7,1.8,2470.774,13.28,0.063,90.0
2022-06-08T08:52:03,42.805,6.029,0.028,-0.007,0.036,102.0,105.0,100.0,13.3,1505.2,332.7,-0.7,1.8,2470.799,13.28,0.028,104.0
2022-06-08T08:55:03,42.805,6.029,0.026,0.001,0.001,103.0,107.0,100.0,13.4,1505.2,328.4,-0.8,1.8,2470.809,13.28,0.026,87.8
2022-06-08T08:58:03,42.805,6.029,0.035,-0.011,0.01,102.0,106.0,100.0,13.3,1505.2,326.5,-0.8,1.8,2470.76,13.28,0.036,107.4
2022-06-08T09:04:03,42.805,6.029,0.069,0.028,0.053,102.0,105.0,100.0,13.4,1505.2,326.3,-0.8,1.8,2470.852,13.28,0.074,67.9
2022-06-08T09:07:03,42.805,6.029,-0.002,0.026,-0.002,102.0,107.0,99.0,13.4,1505.2,327.3,-0.7,1.8,2470.823,13.28,0.026,355.6
2022-06-08T09:10:03,42.805,6.029,0.049,0.014,0.02,103.0,105.0,100.0,13.4,1505.2,328.0,-0.7,1.8,2470.781,13.28,0.05,74.1
2022-06-08T09:13:03,42.805,6.029,0.039,0.014,0.035,102.0,105.0,101.0,13.4,1505.2,324.6,-0.8,1.8,2470.827,13.28,0.041,70.3
2022-06-08T09:16:03,42.805,6.029,0.062,0.001,0.039,102.0,105.0,100.0,13.4,1505.2,329.2,-0.7,1.8,2470.812,13.28,0.062,89.1
2022-06-08T09:19:03,42.805,6.029,0.038,0.012,-0.005,101.0,107.0,101.0,13.4,1505.2,321.7,-0.8,1.8,2470.844,13.28,0.039,72.5
2022-06-08T09:22:03,42.805,6.029,0.049,0.006,0.013,102.0,106.0,101.0,13.3,1505.2,321.2,-0.8,1.8,2470.821,13.28,0.049,83.0
2022-06-08T09:25:03,42.805,6.029,0.04,0.018,0.019,102.0,104.0,99.0,13.4,1505.2,321.7,-0.7,1.8,2470.8,13.28,0.043,65.8
2022-06-08T09:28:03,42.805,6.029,0.023,0.011,0.007,104.0,105.0,100.0,13.3,1505.2,322.0,-0.8,1.8,2470.797,13.28,0.025,64.4
2022-06-08T09:31:03,42.805,6.029,0.034,0.036,0.021,103.0,105.0,100.0,13.4,1505.2,325.0,-0.8,1.8,2470.773,13.28,0.049,43.4
2022-06-08T09:34:03,42.805,6.029,0.034,0.016,-0.003,102.0,104.0,101.0,13.3,1505.2,333.6,-0.7,1.8,2470.787,13.28,0.037,64.8
2022-06-08T09:37:03,42.805,6.029,0.047,-0.006,0.0,102.0,105.0,100.0,13.4,1505.2,328.7,-0.8,1.8,2470.806,13.28,0.047,97.3
2022-06-08T09:40:03,42.805,6.029,0.024,0.007,0.018,101.0,105.0,101.0,13.3,1505.2,325.3,-0.8,1.8,2470.803,13.28,0.025,73.7
2022-06-08T09:43:03,42.805,6.029,0.031,-0.015,0.007,103.0,106.0,100.0,13.3,1505.2,327.0,-0.8,1.8,2470.765,13.28,0.034,115.8
2022-06-08T09:46:03,42.805,6.029,0.023,-0.003,0.024,103.0,105.0,100.0,13.4,1505.2,330.0,-0.8,1.8,2470.799,13.28,0.023,97.4
2022-06-08T09:49:03,42.805,6.029,0.043,0.01,0.019,102.0,106.0,101.0,13.4,1505.2,328.0,-0.7,1.8,2470.804,13.28,0.044,76.9
2022-06-08T09:52:03,42.805,6.029,0.02,-0.003,-0.027,101.0,106.0,100.0,13.4,1505.2,328.0,-0.8,1.8,2470.793,13.28,0.02,98.5
2022-06-08T09:55:03,42.805,6.029,0.061,0.015,0.01,103.0,105.0,101.0,13.3,1505.2,323.3,-0.8,1.8,2470.783,13.28,0.062,76.2
2022-06-08T09:58:03,42.805,6.029,0.054,0.004,0.031,102.0,105.0,101.0,13.3,1505.2,325.6,-0.8,1.8,2470.797,13.28,0.054,85.8
2022-06-08T10:04:03,42.805,6.029,0.056,0.004,0.0,102.0,104.0,101.0,13.4,1505.2,326.0,-0.8,1.8,2470.856,13.28,0.056,85.9
2022-06-08T10:07:03,42.805,6.029,0.033,0.003,0.001,102.0,104.0,100.0,13.4,1505.2,327.1,-0.8,1.8,2470.839,13.28,0.033,84.8
2022-06-08T10:10:03,42.805,6.029,0.043,0.006,0.042,101.0,105.0,102.0,13.3,1505.2,330.1,-0.8,1.8,2470.814,13.28,0.043,82.1